Regional Weather Roundup
Issued by NWS

Home | Current Version | Previous Version | Text Only | Print | Product List | Glossary On
Versions: 1 2 3 4 5 6 7 8 9 10 11 12 13 14 15 16 17 18 19 20 21 22 23 24 25 26 27 28 29 30 31 32 33 34 35 36 37 38 39 40 41 42 43 44 45 46 47 48 49 50
859
ASUS43 KMKX 311400
RWRWI

WISCONSIN REGIONAL WEATHER ROUNDUP
NATIONAL WEATHER SERVICE MILWAUKEE/SULLIVAN WI
900 AM CDT TUE MAY 31 2016

NOTE: "FAIR" INDICATES FEW OR NO CLOUDS BELOW 12,000 FEET WITH NO
SIGNIFICANT WEATHER AND/OR OBSTRUCTIONS TO VISIBILITY.

WIZ001-002-006>008-014>016-023>028-311500-
NORTHWEST WISCONSIN

CITY           SKY/WX    TMP DP  RH WIND       PRES   REMARKS
SUPERIOR ARPT  CLOUDY    44  40  88 NE17G26   29.99S
ASHLAND        CLOUDY    50  45  83 NE8       29.99R
HAYWARD        CLOUDY    60  52  74 SE7       29.95R
SIREN          PTSUNNY   58  52  80 CALM      29.90F
CUMBERLAND     CLOUDY    63  55  77 SE8       29.93S
RICE LAKE      CLOUDY    66  56  70 SE14      29.94S
CHETEK         CLOUDY    67  59  74 SE13      29.95R
LADYSMITH      CLOUDY    64  56  75 E7        29.98R
EAU CLAIRE     NOT AVBL
MENOMONIE      TSTM      67  58  71 S5        29.95R
NEW RICHMOND   HVY RAIN  64  56  75 S14G23    29.92R
OSCEOLA        CLOUDY    68  56  66 S22G30    29.92R
$$

WIZ003>005-009-010-017-018-311500-
NORTH CENTRAL WISCONSIN

CITY           SKY/WX    TMP DP  RH WIND       PRES   REMARKS
MANITOWISH WTR NOT AVBL
ARBOR VITAE    CLOUDY    57  49  75 SE12G17   30.02S
WOODRUFF       CLOUDY    57  49  75 SE12G17   30.02S
RHINELANDER    CLOUDY    56  47  71 SE10      30.04S
EAGLE RIVER      N/A     52  43  69 E10       30.04R
LAND O LAKES   CLOUDY    53  44  74 SE10      30.06R
PHILLIPS       CLOUDY    58  52  79 SE10      29.99R
TOMAHAWK       CLOUDY    55  48  77 SE8       30.02S
MEDFORD        CLOUDY    60  53  80 E10G17    29.98R
MERRILL        MOSUNNY  N/A N/A N/A E13       30.02F
$$

WIZ029-030-035-036-043>047-311500-
CENTRAL WISCONSIN

CITY           SKY/WX    TMP DP  RH WIND       PRES   REMARKS
WAUSAU         SUNNY     60  50  69 E14       30.00S
MOSINEE        SUNNY     61  54  77 E14       30.02S
MARSHFIELD     PTSUNNY   65  55  70 E14       29.98R
STEVENS POINT  CLOUDY    59  52  76 E14G20    30.02S
WAUPACA        SUNNY     64  56  76 E9        30.03S
WAUTOMA        MOSUNNY  N/A N/A N/A E13       30.01R
WISC RAPIDS    CLOUDY    68  55  63 SE10      30.00R
CAMP DOUGLAS   NOT AVBL
$$

WIZ011>013-019>022-031-037>040-048>050-311500-
NORTHEAST WISCONSIN

CITY           SKY/WX    TMP DP  RH WIND       PRES   REMARKS
ANTIGO         CLOUDY    54  47  78 SE10      30.06S
SHAWANO        SUNNY     58  49  71 E9        30.07F
OCONTO         CLOUDY    54  51  89 E9G16     30.07S
STURGEON BAY   NOT AVBL
GREEN BAY      CLOUDY    60  49  66 E9        30.06F
MANITOWOC      NOT AVBL
APPLETON       NOT AVBL
CLINTONVILLE   SUNNY     57  50  77 E8        30.05F
OSHKOSH        SUNNY     62  55  77 E8        30.02F
$$

WIZ032>034-041-042-053>061-311500-
SOUTHWEST WISCONSIN

CITY           SKY/WX    TMP DP  RH WIND       PRES   REMARKS
LA CROSSE      CLOUDY    71  60  68 S10       29.94R
SPARTA         CLOUDY    69  60  71 SE3       29.95R
VIROQUA        CLOUDY    66  60  79 S10       29.97R
BOSCOBEL       NOT AVBL
PRAIRIE DU CHI CLOUDY    68  60  76 CALM      29.95S
PLATTEVILLE    CLOUDY    68  62  83 SE12      29.97S
$$

WIZ056-057-062-063-064-067-068-311500-
SOUTH CENTRAL WISCONSIN

CITY           SKY/WX    TMP DP  RH WIND       PRES   REMARKS
REEDSBURG      SUNNY     72  56  57 SE8       29.97R
BARABOO/DELLS  SUNNY     73  51  44 SE13G20   29.98R
LONE ROCK      NOT AVBL
MINERAL POINT  MOSUNNY   72  61  68 SE12      29.98R
MADISON        MOSUNNY   74  54  49 SE14G22   29.98S
MIDDLETON      MOSUNNY   74  54  48 SE13      29.99S
WATERTOWN      SUNNY     72  56  57 SE12      30.00S
MONROE         MOSUNNY   68  55  64 E8        29.99R
JANESVILLE     PTSUNNY   77  54  44 SE14      29.98F
$$

WIZ051-052-058>065-066-070>072-311500-
SOUTHEAST WISCONSIN

CITY           SKY/WX    TMP DP  RH WIND       PRES   REMARKS
MILWAUKEE      MOSUNNY   62  55  77 NE10      30.04R
WAUKESHA       SUNNY     70  50  49 E13       30.03S
MILWAUKEE/TIMM SUNNY     63  50  63 NE10      30.05S
RACINE         MOSUNNY   69  53  56 E8        30.05R
BURLINGTON     SUNNY     71  51  50 SE9       30.02S
KENOSHA        MOSUNNY   70  54  56 E10       30.03S
FOND DU LAC    SUNNY     67  56  67 E8        30.02S
SHEBOYGAN      CLOUDY    56  50  80 NE16      30.06R
WEST BEND      SUNNY     63  55  77 E10       30.03F
JUNEAU         SUNNY     70  58  64 SE8       30.02R
$$

LSZ147-162-311500-
LAKE SUPERIOR

STATION/POSITION TIME  TEMP    WIND        PRES    WAVE
                       AIR SEA DIR/SP/G            HT/PER
                 (UTC) (F)     (DEG/KT/KT) (MB)    (FT/S)
W MID LAKE BUOY  1250   42 38   80/ 19/ 21 1018.4F   3/ 5
DEVILS ISLAND    1300   43      70/ 26/ 30 1016.4F
SAXON HARBOR     1340   59     110/  4/  7 1014.6F
$$

LMZ867-665-643>646-311500-
LAKE MICHIGAN

STATION/POSITION TIME  TEMP    WIND        PRES    WAVE
                       AIR SEA DIR/SP/G            HT/PER
                 (UTC) (F)     (DEG/KT/KT) (MB)    (FT/S)
CHAMBERS ISLAND  1300   52      30/ 13/ 17 1019.3F
N MID LAKE BUOY  1250   48 47   60/ 12/ 14 1019.5R   1/ 3
NORTHPORT PIER   1300   51      70/  7/ 11 1019.6S
SISTER BAY       1320   58     120/ 10/ 14   N/A
ALGOMA LAKESHORE 1302           60/ 15/ 23   N/A
KEWAUNEE LAKESHO 1300   48      30/  9/ 14 1018.2R
SHEBOYGAN LAKESH 1300   49     360/ 17/ 18 1018.0S
PORT WASHINGTON  1300   57      40/  9/ 13 1018.3R
S MID LAKE BUOY  1250   58 55   40/ 10/ 12 1017.0R   0
KENOSHA   LAKESH 1300   57      40/  6/  9 1016.6S
$$

TC  - TEMPERATURE IN CELSIUS
VSB - VISIBILITY IN STATUTE MILES
WCI - WIND CHILL INDEX
HX  - HEAT INDEX





USA.gov is the U.S. government's official web portal to all federal, state and local government web resources and services.